This demonstration page uses our WeatherBlox Daily Observations layout. Learn more.

Left ArrowRight Arrow

Hourly Observations for January 2, 2016

Temp ( °F °C ) Dew Point ( °F °C ) Humidity (%) Winds ( mph kmh ) Pressure ( in mb ) Visibility ( mi km ) Precip ( " mm )
12:51 am 00:51 Cloudy 44 6.7 31 -0.6 60 60 SE 10 17 30.27 1025 10 16 N/A
1:51 am 01:51 Cloudy 43 6.1 31 -0.6 63 63 SE 7 11 30.27 1025 10 16 N/A
2:51 am 02:51 Cloudy 43 6.1 31 -0.6 63 63 SSE 9 15 30.26 1025 10 16 N/A
3:51 am 03:51 Cloudy 43 6.1 31 -0.6 63 63 SSE 14 22 30.26 1025 10 16 N/A
4:51 am 04:51 Cloudy 43 6.1 31 -0.6 63 63 SSE 12 19 30.24 1024 10 16 N/A
5:51 am 05:51 Cloudy 42 5.6 31 -0.6 65 65 SE 8 13 30.26 1025 10 16 N/A
6:51 am 06:51 Cloudy 42 5.6 31 -0.6 65 65 SSE 10 17 30.27 1025 10 16 N/A
7:51 am 07:51 Cloudy 42 5.6 31 -0.6 65 65 SSE 13 20 30.28 1025 10 16 N/A
8:51 am 08:51 Cloudy 43 6.1 32 undefined 65 65 SSE 12 19 30.30 1026 10 16 N/A
9:51 am 09:51 Cloudy 45 7.2 32 undefined 61 61 SSE 10 17 30.31 1026 10 16 N/A
10:51 am 10:51 Cloudy 47 8.3 31 -0.6 54 54 SE 14 22 30.30 1026 10 16 N/A
11:51 am 11:51 Cloudy 49 9.4 30 -1.1 48 48 ESE 14 22 30.26 1025 10 16 N/A
12:51 pm 12:51 Partly Cloudy 50 10 31 -0.6 48 48 SE 12 19 30.22 1024 10 16 N/A
1:35 pm 13:35 Hazy 52 11.1 31 -0.6 45 45 ESE 12 19 30.21 1023 2 2 N/A
1:46 pm 13:46 Hazy 52 11 30 -1 44 44 SE 13 20 30.21 1023 1 1 N/A
1:51 pm 13:51 Hazy 52 11.1 31 -0.6 45 45 SE 14 22 30.19 1022 4 6 N/A
2:51 pm 14:51 Sunny 53 11.7 31 -0.6 43 43 SE 9 15 30.17 1022 10 16 N/A
3:51 pm 15:51 Sunny 53 11.7 31 -0.6 43 43 SSE 12 19 30.16 1021 10 16 N/A
4:51 pm 16:51 Sunny 51 10.6 32 undefined 48 48 S 13 20 30.16 1021 10 16 N/A
5:51 pm 17:51 Clear 47 8.3 32 undefined 56 56 SSE 9 15 30.18 1022 10 16 N/A
6:51 pm 18:51 Clear 46 7.8 33 0.6 61 61 SE 10 17 30.21 1023 10 16 N/A
7:51 pm 19:51 Clear 43 6.1 33 0.6 68 68 SE 9 15 30.23 1024 10 16 N/A
8:51 pm 20:51 Hazy 42 5.6 33 0.6 71 71 SE 9 15 30.25 1024 3 5 N/A
8:58 pm 20:58 Hazy 42 5.6 33 0.6 71 71 SE 10 17 30.30 1026 3 4 N/A
9:07 pm 21:07 Clear 41 5 33 0.6 73 73 SE 9 15 30.30 1026 10 16 N/A
9:51 pm 21:51 Clear 40 4.4 32 undefined 73 73 SSE 9 15 30.27 1025 10 16 N/A
10:51 pm 22:51 Clear 38 3.3 32 undefined 79 79 SSE 10 17 30.28 1026 10 16 N/A
11:51 pm 23:51 Clear 38 3.3 31 -0.6 76 76 SE 9 15 30.27 1025 10 16 N/A

Powered by AerisWeather